TimeAKDT,TemperatureF,Dew PointF,Humidity,Sea Level PressureIn,VisibilityMPH,Wind Direction,Wind SpeedMPH,Gust SpeedMPH,PrecipitationIn,Events,Conditions,WindDirDegrees,DateUTC
12:12 AM,15.8,5.0,62,29.75,9.0,WSW,16.1,23.0,N/A,,Overcast,240,2013-03-26 08:12:00
12:53 AM,16.0,6.1,65,29.78,4.0,West,13.8,21.9,0.00,Snow,Light Snow,260,2013-03-26 08:53:00
1:53 AM,15.1,6.1,68,29.81,3.0,West,10.4,21.9,0.00,Snow,Light Snow,270,2013-03-26 09:53:00
2:21 AM,15.8,6.8,68,29.82,2.0,WSW,13.8,19.6,0.00,Snow,Light Snow,250,2013-03-26 10:21:00
2:31 AM,15.8,5.0,62,29.83,4.0,WSW,13.8,-,0.00,Snow,Light Snow,250,2013-03-26 10:31:00
2:53 AM,15.1,3.9,61,29.84,10.0,WSW,15.0,-,0.00,,Overcast,240,2013-03-26 10:53:00
3:53 AM,16.0,3.9,59,29.86,9.0,West,9.2,-,N/A,,Overcast,260,2013-03-26 11:53:00
4:53 AM,15.1,5.0,64,29.88,9.0,West,3.5,-,N/A,,Overcast,270,2013-03-26 12:53:00
5:03 AM,15.8,5.0,62,29.87,5.0,WNW,5.8,-,0.00,Snow,Light Snow,300,2013-03-26 13:03:00
5:53 AM,14.0,5.0,67,29.89,10.0,Calm,Calm,-,0.00,,Mostly Cloudy,0,2013-03-26 13:53:00
6:07 AM,12.2,3.2,67,29.88,10.0,Calm,Calm,-,N/A,,Mostly Cloudy,0,2013-03-26 14:07:00
6:53 AM,12.0,3.0,67,29.90,10.0,Calm,Calm,-,N/A,,Clear,0,2013-03-26 14:53:00
7:53 AM,10.0,3.0,73,29.92,10.0,North,3.5,-,N/A,,Mostly Cloudy,10,2013-03-26 15:53:00
8:14 AM,12.2,6.8,79,29.92,1.8,Calm,Calm,-,0.00,Snow,Light Snow,0,2013-03-26 16:14:00
8:15 AM,12.2,6.8,79,29.92,8.0,Calm,Calm,-,0.00,Snow,Light Snow,0,2013-03-26 16:15:00
8:53 AM,15.1,8.1,74,29.94,8.0,Calm,Calm,-,0.00,,Overcast,0,2013-03-26 16:53:00
9:21 AM,15.8,6.8,68,29.95,10.0,Calm,Calm,-,N/A,,Overcast,0,2013-03-26 17:21:00
9:45 AM,17.6,6.8,63,29.95,8.0,WNW,4.6,-,N/A,,Overcast,300,2013-03-26 17:45:00
9:53 AM,17.1,7.0,65,29.96,6.0,Calm,Calm,-,N/A,,Haze,0,2013-03-26 17:53:00
10:21 AM,17.6,6.8,63,29.97,10.0,WSW,5.8,-,N/A,,Scattered Clouds,240,2013-03-26 18:21:00
10:53 AM,19.0,6.1,57,29.99,10.0,WSW,4.6,-,N/A,,Partly Cloudy,250,2013-03-26 18:53:00
11:53 AM,19.0,7.0,59,30.02,8.0,WNW,5.8,-,0.00,,Overcast,300,2013-03-26 19:53:00
12:53 PM,19.0,12.9,77,30.04,4.0,SW,17.3,23.0,0.00,Snow,Light Snow,230,2013-03-26 20:53:00
1:12 PM,19.4,12.2,74,30.04,1.0,WSW,13.8,23.0,0.00,Snow,Light Snow,240,2013-03-26 21:12:00
1:53 PM,18.0,12.9,81,30.06,1.0,WSW,11.5,-,0.02,Snow,Light Snow,240,2013-03-26 21:53:00
2:49 PM,19.4,14.0,80,30.06,3.0,WSW,5.8,-,0.02,Snow,Light Snow,250,2013-03-26 22:49:00
2:53 PM,19.9,14.0,78,30.07,3.0,West,5.8,-,0.02,Snow,Light Snow,260,2013-03-26 22:53:00
2:55 PM,19.4,14.0,80,30.06,1.0,WSW,4.6,-,0.00,Snow,Light Snow,250,2013-03-26 22:55:00
3:03 PM,19.4,12.2,74,30.06,3.0,WSW,8.1,-,0.00,Snow,Light Snow,240,2013-03-26 23:03:00
3:53 PM,19.0,12.9,77,30.08,3.0,SSW,4.6,-,0.00,Snow,Light Snow,210,2013-03-26 23:53:00
4:12 PM,19.4,12.2,74,30.07,7.0,SSW,9.2,-,0.00,Snow,Light Snow,210,2013-03-27 00:12:00
4:53 PM,21.0,12.0,68,30.09,9.0,SSW,9.2,-,0.00,,Mostly Cloudy,210,2013-03-27 00:53:00
5:53 PM,19.9,14.0,78,30.10,8.0,South,4.6,-,0.00,Snow,Light Snow,190,2013-03-27 01:53:00
6:40 PM,19.4,12.2,74,30.10,2.0,SSW,8.1,-,0.00,Snow,Light Snow,210,2013-03-27 02:40:00
6:53 PM,19.9,14.0,78,30.11,2.0,SW,9.2,-,0.00,Snow,Light Snow,220,2013-03-27 02:53:00
7:19 PM,19.4,12.2,74,30.11,7.0,WSW,4.6,-,0.00,Snow,Light Snow,250,2013-03-27 03:19:00
7:53 PM,19.0,12.0,74,30.12,10.0,WNW,4.6,-,0.00,,Partly Cloudy,290,2013-03-27 03:53:00
8:53 PM,15.1,10.9,84,30.12,10.0,Calm,Calm,-,N/A,,Clear,0,2013-03-27 04:53:00
9:53 PM,12.0,8.1,84,30.14,10.0,Calm,Calm,-,N/A,,Partly Cloudy,0,2013-03-27 05:53:00
10:53 PM,12.0,7.0,80,30.15,10.0,Calm,Calm,-,N/A,,Clear,0,2013-03-27 06:53:00
11:53 PM,10.0,6.1,84,30.16,10.0,Calm,Calm,-,N/A,,Mostly Cloudy,0,2013-03-27 07:53:00